Time,TemperatureF,DewpointF,PressureIn,WindDirection,WindDirectionDegrees,WindSpeedMPH,WindSpeedGustMPH,Humidity,HourlyPrecipIn,Conditions,Clouds,dailyrainin,SoftwareType,DateUTC
2013-06-23 00:01:00,62.5,52.2,29.84,ENE,68,0.4,1.8,69,0.00,,,0.00,WUHU216HW,2013-06-23 07:01:00,
2013-06-23 00:06:00,62.5,52.2,29.84,ENE,68,0.7,1.8,69,0.00,,,0.00,WUHU216HW,2013-06-23 07:06:00,
2013-06-23 00:11:00,62.3,52.0,29.84,ESE,113,0.7,1.6,69,0.00,,,0.00,WUHU216HW,2013-06-23 07:11:00,
2013-06-23 00:16:00,62.1,51.8,29.84,ENE,68,0.2,1.8,69,0.00,,,0.00,WUHU216HW,2013-06-23 07:16:00,
2013-06-23 00:21:00,61.9,51.7,29.84,ENE,68,0.2,1.8,69,0.00,,,0.00,WUHU216HW,2013-06-23 07:21:00,
2013-06-23 00:26:00,61.7,51.5,29.84,North,0,0.7,1.1,69,0.00,,,0.00,WUHU216HW,2013-06-23 07:26:00,
2013-06-23 00:31:00,61.6,51.8,29.83,NE,45,2.0,2.2,70,0.00,,,0.00,WUHU216HW,2013-06-23 07:31:00,
2013-06-23 00:36:00,61.6,51.4,29.83,NE,45,0.4,2.2,69,0.00,,,0.00,WUHU216HW,2013-06-23 07:36:00,
2013-06-23 00:41:00,61.4,51.6,29.83,ENE,68,1.6,2.9,70,0.00,,,0.00,WUHU216HW,2013-06-23 07:41:00,
2013-06-23 00:46:00,61.4,51.9,29.83,NE,45,2.5,2.9,71,0.00,,,0.00,WUHU216HW,2013-06-23 07:46:00,
2013-06-23 00:51:00,61.4,51.6,29.82,East,90,1.8,2.5,70,0.00,,,0.00,WUHU216HW,2013-06-23 07:51:00,
2013-06-23 00:56:00,61.6,51.8,29.82,NNE,23,1.1,2.5,70,0.00,,,0.00,WUHU216HW,2013-06-23 07:56:00,
2013-06-23 01:01:00,61.4,51.6,29.82,NE,45,1.8,2.9,70,0.00,,,0.00,WUHU216HW,2013-06-23 08:01:00,
2013-06-23 01:06:00,61.4,51.6,29.82,NE,45,1.8,2.9,70,0.00,,,0.00,WUHU216HW,2013-06-23 08:06:00,
2013-06-23 01:11:00,61.4,51.6,29.82,NE,45,1.6,2.2,70,0.00,,,0.00,WUHU216HW,2013-06-23 08:11:00,
2013-06-23 01:16:00,61.4,51.9,29.82,North,0,0.4,1.8,71,0.00,,,0.00,WUHU216HW,2013-06-23 08:16:00,
2013-06-23 01:21:00,61.4,51.6,29.82,ENE,68,1.1,1.8,70,0.00,,,0.00,WUHU216HW,2013-06-23 08:21:00,
2013-06-23 01:26:00,61.2,51.5,29.82,NE,45,1.6,2.2,70,0.00,,,0.00,WUHU216HW,2013-06-23 08:26:00,
2013-06-23 01:31:00,61.2,51.5,29.81,ENE,68,0.4,2.2,70,0.00,,,0.00,WUHU216HW,2013-06-23 08:31:00,
2013-06-23 01:36:00,61.2,51.5,29.81,NE,45,1.1,1.6,70,0.00,,,0.00,WUHU216HW,2013-06-23 08:36:00,
2013-06-23 01:41:00,61.2,51.5,29.81,ENE,68,0.9,1.3,70,0.00,,,0.00,WUHU216HW,2013-06-23 08:41:00,
2013-06-23 01:46:00,61.2,51.9,29.81,ENE,68,0.4,1.3,71,0.00,,,0.00,WUHU216HW,2013-06-23 08:46:00,
2013-06-23 01:51:00,61.0,51.7,29.81,ENE,68,1.8,1.8,71,0.00,,,0.00,WUHU216HW,2013-06-23 08:51:00,
2013-06-23 01:56:00,60.8,51.5,29.81,ENE,68,0.0,1.8,71,0.00,,,0.00,WUHU216HW,2013-06-23 08:56:00,
2013-06-23 02:01:00,60.8,51.8,29.81,ESE,113,0.7,1.8,72,0.00,,,0.00,WUHU216HW,2013-06-23 09:01:00,
2013-06-23 02:06:00,60.7,51.7,29.81,NNE,23,3.1,3.1,72,0.00,,,0.00,WUHU216HW,2013-06-23 09:06:00,
2013-06-23 02:11:00,60.7,51.7,29.81,NNE,23,2.0,3.8,72,0.00,,,0.00,WUHU216HW,2013-06-23 09:11:00,
2013-06-23 02:16:00,60.7,51.7,29.81,North,0,2.5,4.0,72,0.00,,,0.00,WUHU216HW,2013-06-23 09:16:00,
2013-06-23 02:21:00,60.7,51.7,29.80,NE,45,1.8,4.0,72,0.00,,,0.00,WUHU216HW,2013-06-23 09:21:00,
2013-06-23 02:26:00,60.8,52.2,29.80,North,0,1.8,4.5,73,0.00,,,0.00,WUHU216HW,2013-06-23 09:26:00,
2013-06-23 02:31:00,60.7,51.7,29.81,NNE,23,0.9,4.5,72,0.00,,,0.00,WUHU216HW,2013-06-23 09:31:00,
2013-06-23 02:36:00,60.7,51.7,29.80,East,90,0.9,2.2,72,0.00,,,0.00,WUHU216HW,2013-06-23 09:36:00,
2013-06-23 02:41:00,60.7,52.0,29.80,NE,45,0.2,1.8,73,0.00,,,0.00,WUHU216HW,2013-06-23 09:41:00,
2013-06-23 02:46:00,60.5,51.5,29.80,SE,135,0.0,2.0,72,0.00,,,0.00,WUHU216HW,2013-06-23 09:46:00,
2013-06-23 02:51:00,60.5,51.5,29.80,NE,45,0.7,2.5,72,0.00,,,0.00,WUHU216HW,2013-06-23 09:51:00,
2013-06-23 02:56:00,60.5,51.8,29.80,ENE,68,1.1,2.7,73,0.00,,,0.00,WUHU216HW,2013-06-23 09:56:00,
2013-06-23 03:01:00,60.5,51.8,29.80,SE,135,0.9,2.7,73,0.00,,,0.00,WUHU216HW,2013-06-23 10:01:00,
2013-06-23 03:06:00,60.5,51.5,29.80,ENE,68,1.1,2.0,72,0.00,,,0.00,WUHU216HW,2013-06-23 10:06:00,
2013-06-23 03:11:00,60.7,51.7,29.80,NNW,338,0.0,1.8,72,0.00,,,0.00,WUHU216HW,2013-06-23 10:11:00,
2013-06-23 03:16:00,60.8,51.8,29.80,WSW,248,0.0,0.7,72,0.00,,,0.00,WUHU216HW,2013-06-23 10:16:00,
2013-06-23 03:21:00,60.8,51.8,29.80,WSW,248,0.0,0.4,72,0.00,,,0.00,WUHU216HW,2013-06-23 10:21:00,
2013-06-23 03:26:00,60.8,51.5,29.80,North,0,0.0,0.7,71,0.00,,,0.00,WUHU216HW,2013-06-23 10:26:00,
2013-06-23 03:31:00,61.0,51.7,29.80,North,0,0.2,0.7,71,0.00,,,0.00,WUHU216HW,2013-06-23 10:31:00,
2013-06-23 03:36:00,61.0,51.7,29.80,North,0,0.0,0.2,71,0.00,,,0.00,WUHU216HW,2013-06-23 10:36:00,
2013-06-23 03:41:00,61.2,51.9,29.80,NNW,338,0.0,0.4,71,0.00,,,0.00,WUHU216HW,2013-06-23 10:41:00,
2013-06-23 03:46:00,61.2,51.9,29.80,NNW,338,0.2,0.4,71,0.00,,,0.00,WUHU216HW,2013-06-23 10:46:00,
2013-06-23 03:51:00,60.8,51.8,29.80,North,0,1.3,1.3,72,0.00,,,0.00,WUHU216HW,2013-06-23 10:51:00,
2013-06-23 03:56:00,60.8,51.8,29.80,NW,315,0.2,1.6,72,0.00,,,0.00,WUHU216HW,2013-06-23 10:56:00,
2013-06-23 04:01:00,60.8,51.8,29.80,SSE,158,0.4,1.6,72,0.00,,,0.00,WUHU216HW,2013-06-23 11:01:00,
2013-06-23 04:06:00,60.8,52.2,29.79,NNE,23,3.4,3.4,73,0.00,,,0.00,WUHU216HW,2013-06-23 11:06:00,
2013-06-23 04:11:00,60.5,51.8,29.79,ENE,68,1.1,3.4,73,0.00,,,0.00,WUHU216HW,2013-06-23 11:11:00,
2013-06-23 04:16:00,60.5,51.8,29.79,NW,315,0.0,3.4,73,0.00,,,0.00,WUHU216HW,2013-06-23 11:16:00,
2013-06-23 04:21:00,60.5,51.8,29.79,ENE,68,0.4,1.8,73,0.00,,,0.00,WUHU216HW,2013-06-23 11:21:00,
2013-06-23 04:26:00,60.5,51.8,29.79,SE,135,1.1,1.1,73,0.00,,,0.00,WUHU216HW,2013-06-23 11:26:00,
2013-06-23 04:31:00,60.5,51.8,29.79,SW,225,0.4,1.1,73,0.00,,,0.00,WUHU216HW,2013-06-23 11:31:00,
2013-06-23 04:36:00,60.5,51.8,29.80,SSW,203,0.4,2.2,73,0.00,,,0.00,WUHU216HW,2013-06-23 11:36:00,
2013-06-23 04:41:00,60.5,51.8,29.79,SW,225,0.7,2.2,73,0.00,,,0.00,WUHU216HW,2013-06-23 11:41:00,
2013-06-23 04:46:00,60.5,51.8,29.79,SSW,203,1.1,1.3,73,0.00,,,0.00,WUHU216HW,2013-06-23 11:46:00,
2013-06-23 04:51:00,60.5,51.8,29.79,WSW,248,1.3,1.8,73,0.00,,,0.00,WUHU216HW,2013-06-23 11:51:00,
2013-06-23 04:56:00,60.1,51.8,29.79,West,270,0.0,1.8,74,0.00,,,0.00,WUHU216HW,2013-06-23 11:56:00,
2013-06-23 05:01:00,60.1,51.8,29.79,West,270,1.1,1.3,74,0.00,,,0.00,WUHU216HW,2013-06-23 12:01:00,
2013-06-23 05:06:00,60.1,52.2,29.79,WSW,248,0.4,1.8,75,0.00,,,0.00,WUHU216HW,2013-06-23 12:06:00,
2013-06-23 05:11:00,60.1,52.2,29.79,WSW,248,0.0,1.8,75,0.00,,,0.00,WUHU216HW,2013-06-23 12:11:00,
2013-06-23 05:16:00,60.1,52.2,29.79,WSW,248,0.0,0.4,75,0.00,,,0.00,WUHU216HW,2013-06-23 12:16:00,
2013-06-23 05:21:00,60.1,52.6,29.79,WSW,248,0.4,0.4,76,0.00,,,0.00,WUHU216HW,2013-06-23 12:21:00,
2013-06-23 05:26:00,60.1,52.6,29.79,SW,225,0.4,1.1,76,0.00,,,0.00,WUHU216HW,2013-06-23 12:26:00,
2013-06-23 05:31:00,60.1,52.6,29.79,SW,225,1.1,1.1,76,0.00,,,0.00,WUHU216HW,2013-06-23 12:31:00,
2013-06-23 05:36:00,59.9,52.4,29.79,SW,225,0.9,1.6,76,0.00,,,0.00,WUHU216HW,2013-06-23 12:36:00,
2013-06-23 05:41:00,59.8,52.6,29.79,WSW,248,0.0,1.6,77,0.00,,,0.00,WUHU216HW,2013-06-23 12:41:00,
2013-06-23 05:46:00,59.6,52.4,29.79,WSW,248,0.0,0.9,77,0.00,,,0.00,WUHU216HW,2013-06-23 12:46:00,
2013-06-23 05:51:00,59.6,52.7,29.79,WSW,248,1.1,1.1,78,0.00,,,0.00,WUHU216HW,2013-06-23 12:51:00,
2013-06-23 05:56:00,59.6,52.7,29.79,WSW,248,0.0,1.1,78,0.00,,,0.00,WUHU216HW,2013-06-23 12:56:00,
2013-06-23 06:01:00,59.6,52.7,29.79,WSW,248,0.0,0.9,78,0.00,,,0.00,WUHU216HW,2013-06-23 13:01:00,
2013-06-23 06:07:00,59.6,52.7,29.79,SW,225,0.9,0.9,78,0.00,,,0.00,WUHU216HW,2013-06-23 13:07:00,
2013-06-23 06:11:00,59.6,53.1,29.79,WSW,248,0.7,1.8,79,0.00,,,0.00,WUHU216HW,2013-06-23 13:11:00,
2013-06-23 06:16:00,59.6,53.1,29.79,SW,225,0.4,1.8,79,0.00,,,0.00,WUHU216HW,2013-06-23 13:16:00,
2013-06-23 06:21:00,59.6,53.1,29.79,SW,225,0.0,0.9,79,0.00,,,0.00,WUHU216HW,2013-06-23 13:21:00,
2013-06-23 06:27:00,59.6,53.1,29.79,SW,225,0.0,0.4,79,0.00,,,0.00,WUHU216HW,2013-06-23 13:27:00,
2013-06-23 06:32:00,59.6,53.1,29.79,SW,225,0.0,0.0,79,0.00,,,0.00,WUHU216HW,2013-06-23 13:32:00,
2013-06-23 06:37:00,59.8,53.3,29.79,SW,225,0.0,0.0,79,0.00,,,0.00,WUHU216HW,2013-06-23 13:37:00,
2013-06-23 06:42:00,59.8,53.3,29.79,SW,225,0.9,1.1,79,0.00,,,0.00,WUHU216HW,2013-06-23 13:42:00,
2013-06-23 06:47:00,59.8,53.3,29.79,SW,225,0.9,1.1,79,0.00,,,0.00,WUHU216HW,2013-06-23 13:47:00,
2013-06-23 06:52:00,59.8,53.3,29.79,SW,225,1.1,1.1,79,0.00,,,0.00,WUHU216HW,2013-06-23 13:52:00,
2013-06-23 06:57:00,59.9,53.5,29.79,SW,225,0.0,1.1,79,0.00,,,0.00,WUHU216HW,2013-06-23 13:57:00,
2013-06-23 07:02:00,59.9,53.5,29.79,SW,225,0.0,0.7,79,0.00,,,0.00,WUHU216HW,2013-06-23 14:02:00,
2013-06-23 07:07:00,60.1,53.6,29.79,SW,225,0.0,0.0,79,0.00,,,0.00,WUHU216HW,2013-06-23 14:07:00,
2013-06-23 07:12:00,60.3,53.8,29.79,SW,225,0.4,0.4,79,0.00,,,0.00,WUHU216HW,2013-06-23 14:12:00,
2013-06-23 07:17:00,60.3,53.8,29.79,SW,225,0.4,1.8,79,0.00,,,0.00,WUHU216HW,2013-06-23 14:17:00,
2013-06-23 07:22:00,60.5,54.0,29.79,SW,225,0.0,1.8,79,0.01,,,0.01,WUHU216HW,2013-06-23 14:22:00,
2013-06-23 07:27:00,60.7,54.2,29.78,WSW,248,0.4,0.7,79,0.01,,,0.01,WUHU216HW,2013-06-23 14:27:00,
2013-06-23 07:32:00,60.8,54.4,29.78,WSW,248,0.0,0.7,79,0.01,,,0.01,WUHU216HW,2013-06-23 14:32:00,
2013-06-23 07:37:00,60.8,54.4,29.78,North,0,0.4,0.9,79,0.01,,,0.01,WUHU216HW,2013-06-23 14:37:00,
2013-06-23 07:42:00,60.5,54.4,29.78,NE,45,0.4,0.9,80,0.01,,,0.01,WUHU216HW,2013-06-23 14:42:00,
2013-06-23 07:47:00,60.1,54.4,29.78,NE,45,0.2,0.9,81,0.01,,,0.01,WUHU216HW,2013-06-23 14:47:00,
2013-06-23 07:52:00,59.8,54.0,29.78,NE,45,0.0,0.9,81,0.01,,,0.01,WUHU216HW,2013-06-23 14:52:00,
2013-06-23 07:57:00,59.6,53.8,29.79,NE,45,0.0,0.7,81,0.01,,,0.01,WUHU216HW,2013-06-23 14:57:00,
2013-06-23 08:03:00,59.8,54.0,29.79,NE,45,0.0,0.0,81,0.02,,,0.02,WUHU216HW,2013-06-23 15:03:00,
2013-06-23 08:08:00,59.9,54.2,29.79,SW,225,0.4,1.3,81,0.02,,,0.02,WUHU216HW,2013-06-23 15:08:00,
2013-06-23 08:13:00,60.3,54.6,29.79,WSW,248,0.0,1.3,81,0.02,,,0.02,WUHU216HW,2013-06-23 15:13:00,
2013-06-23 08:18:00,60.5,54.7,29.79,SW,225,0.2,1.1,81,0.02,,,0.02,WUHU216HW,2013-06-23 15:18:00,
2013-06-23 08:23:00,60.8,55.1,29.79,SW,225,1.6,1.6,81,0.01,,,0.02,WUHU216HW,2013-06-23 15:23:00,
2013-06-23 08:28:00,61.0,55.2,29.79,SW,225,0.0,1.6,81,0.01,,,0.02,WUHU216HW,2013-06-23 15:28:00,
2013-06-23 08:33:00,61.2,55.4,29.79,SW,225,0.4,1.6,81,0.01,,,0.02,WUHU216HW,2013-06-23 15:33:00,
2013-06-23 08:38:00,60.8,55.1,29.78,NE,45,0.4,1.1,81,0.01,,,0.02,WUHU216HW,2013-06-23 15:38:00,
2013-06-23 08:43:00,60.5,54.7,29.78,NE,45,0.0,1.1,81,0.01,,,0.02,WUHU216HW,2013-06-23 15:43:00,
2013-06-23 08:48:00,60.5,54.7,29.78,NE,45,0.0,0.4,81,0.01,,,0.02,WUHU216HW,2013-06-23 15:48:00,
2013-06-23 08:53:00,60.5,54.7,29.78,NE,45,0.0,0.4,81,0.01,,,0.02,WUHU216HW,2013-06-23 15:53:00,
2013-06-23 08:58:00,60.8,55.1,29.78,SW,225,1.8,2.9,81,0.02,,,0.03,WUHU216HW,2013-06-23 15:58:00,
2013-06-23 09:04:00,60.8,55.1,29.78,WSW,248,0.0,2.9,81,0.01,,,0.03,WUHU216HW,2013-06-23 16:04:00,
2013-06-23 09:09:00,61.0,55.2,29.78,SW,225,1.3,1.8,81,0.01,,,0.03,WUHU216HW,2013-06-23 16:09:00,
2013-06-23 09:14:00,61.2,55.4,29.77,WSW,248,2.5,2.5,81,0.01,,,0.03,WUHU216HW,2013-06-23 16:14:00,
2013-06-23 09:19:00,61.4,55.5,29.77,WSW,248,1.1,2.7,81,0.01,,,0.03,WUHU216HW,2013-06-23 16:19:00,
2013-06-23 09:24:00,61.6,55.7,29.77,West,270,1.1,2.7,81,0.01,,,0.03,WUHU216HW,2013-06-23 16:24:00,
2013-06-23 09:29:00,61.6,55.7,29.77,SSW,203,1.1,1.8,81,0.02,,,0.04,WUHU216HW,2013-06-23 16:29:00,
2013-06-23 09:34:00,61.7,55.9,29.77,WSW,248,0.7,1.3,81,0.02,,,0.04,WUHU216HW,2013-06-23 16:34:00,
2013-06-23 09:39:00,61.9,56.1,29.76,North,0,0.7,1.6,81,0.02,,,0.04,WUHU216HW,2013-06-23 16:39:00,
2013-06-23 09:44:00,61.9,56.1,29.76,WSW,248,0.0,1.6,81,0.02,,,0.04,WUHU216HW,2013-06-23 16:44:00,
2013-06-23 09:49:00,62.1,56.2,29.76,NNE,23,0.4,1.1,81,0.02,,,0.04,WUHU216HW,2013-06-23 16:49:00,
2013-06-23 09:54:00,61.9,56.1,29.76,East,90,0.0,1.3,81,0.02,,,0.04,WUHU216HW,2013-06-23 16:54:00,
2013-06-23 09:57:00,61.9,56.1,29.76,East,90,0.0,1.3,81,0.01,,,0.04,WUHU216HW,2013-06-23 16:57:00,
2013-06-23 09:58:00,61.7,55.9,29.76,East,90,0.0,1.3,81,0.01,,,0.04,WUHU216HW,2013-06-23 16:58:00,
2013-06-23 10:03:00,61.7,55.9,29.76,East,90,0.4,0.4,81,0.01,,,0.04,WUHU216HW,2013-06-23 17:03:00,
2013-06-23 10:08:00,61.6,55.7,29.76,East,90,0.2,0.7,81,0.01,,,0.04,WUHU216HW,2013-06-23 17:08:00,
2013-06-23 10:13:00,61.9,56.3,29.76,NNE,23,0.7,0.9,82,0.01,,,0.04,WUHU216HW,2013-06-23 17:13:00,
2013-06-23 10:18:00,62.1,56.2,29.76,North,0,0.4,0.9,81,0.01,,,0.04,WUHU216HW,2013-06-23 17:18:00,
2013-06-23 10:23:00,62.3,56.7,29.76,ENE,68,1.8,1.8,82,0.01,,,0.04,WUHU216HW,2013-06-23 17:23:00,
2013-06-23 10:28:00,62.5,56.9,29.76,NE,45,1.1,1.8,82,0.00,,,0.04,WUHU216HW,2013-06-23 17:28:00,
2013-06-23 10:33:00,62.3,56.7,29.76,NNE,23,1.8,1.8,82,0.00,,,0.04,WUHU216HW,2013-06-23 17:33:00,
2013-06-23 10:38:00,61.9,56.3,29.75,NE,45,0.7,2.5,82,0.00,,,0.04,WUHU216HW,2013-06-23 17:38:00,
2013-06-23 10:43:00,61.7,56.2,29.75,East,90,0.7,2.5,82,0.00,,,0.04,WUHU216HW,2013-06-23 17:43:00,
2013-06-23 10:48:00,61.7,56.2,29.75,NE,45,0.4,1.1,82,0.00,,,0.04,WUHU216HW,2013-06-23 17:48:00,
2013-06-23 10:53:00,61.9,56.3,29.75,NNE,23,0.4,1.1,82,0.00,,,0.04,WUHU216HW,2013-06-23 17:53:00,
2013-06-23 10:58:00,62.3,56.3,29.75,ENE,68,0.4,1.8,81,0.00,,,0.04,WUHU216HW,2013-06-23 17:58:00,
2013-06-23 11:03:00,62.6,57.1,29.75,East,90,2.5,2.5,82,0.00,,,0.04,WUHU216HW,2013-06-23 18:03:00,
2013-06-23 11:08:00,62.6,57.1,29.74,ENE,68,1.8,2.5,82,0.00,,,0.04,WUHU216HW,2013-06-23 18:08:00,
2013-06-23 11:13:00,62.3,56.7,29.74,ESE,113,1.6,2.7,82,0.00,,,0.04,WUHU216HW,2013-06-23 18:13:00,
2013-06-23 11:18:00,61.9,56.3,29.74,ENE,68,1.1,2.7,82,0.00,,,0.04,WUHU216HW,2013-06-23 18:18:00,
2013-06-23 11:23:00,62.1,56.5,29.74,ENE,68,1.3,2.5,82,0.00,,,0.04,WUHU216HW,2013-06-23 18:23:00,
2013-06-23 11:28:00,62.3,56.7,29.74,NE,45,1.3,2.7,82,0.00,,,0.04,WUHU216HW,2013-06-23 18:28:00,
2013-06-23 11:33:00,62.6,57.1,29.74,NE,45,0.4,2.7,82,0.00,,,0.04,WUHU216HW,2013-06-23 18:33:00,
2013-06-23 11:38:00,63.2,57.6,29.73,North,0,2.7,2.7,82,0.00,,,0.04,WUHU216HW,2013-06-23 18:38:00,
2013-06-23 11:43:00,63.2,57.3,29.74,East,90,1.3,2.7,81,0.00,,,0.04,WUHU216HW,2013-06-23 18:43:00,
2013-06-23 11:48:00,63.4,57.4,29.74,ENE,68,2.5,3.4,81,0.00,,,0.04,WUHU216HW,2013-06-23 18:48:00,
2013-06-23 11:53:00,63.4,57.4,29.74,ENE,68,1.1,3.4,81,0.00,,,0.04,WUHU216HW,2013-06-23 18:53:00,
2013-06-23 11:58:00,63.4,57.4,29.73,East,90,1.6,2.7,81,0.00,,,0.04,WUHU216HW,2013-06-23 18:58:00,
2013-06-23 12:03:00,63.5,57.6,29.74,East,90,1.8,3.4,81,0.00,,,0.04,WUHU216HW,2013-06-23 19:03:00,
2013-06-23 12:08:00,63.9,58.0,29.73,NE,45,1.1,3.4,81,0.00,,,0.04,WUHU216HW,2013-06-23 19:08:00,
2013-06-23 12:13:00,64.6,59.1,29.73,NE,45,1.6,2.5,82,0.00,,,0.04,WUHU216HW,2013-06-23 19:13:00,
2013-06-23 12:18:00,65.2,59.2,29.73,East,90,2.7,2.7,81,0.00,,,0.04,WUHU216HW,2013-06-23 19:18:00,
2013-06-23 12:23:00,64.8,58.9,29.73,ENE,68,2.7,3.4,81,0.00,,,0.04,WUHU216HW,2013-06-23 19:23:00,
2013-06-23 12:28:00,64.4,58.5,29.73,East,90,1.1,3.4,81,0.00,,,0.04,WUHU216HW,2013-06-23 19:28:00,
2013-06-23 12:33:00,64.4,58.5,29.73,East,90,0.9,3.1,81,0.00,,,0.04,WUHU216HW,2013-06-23 19:33:00,
2013-06-23 12:38:00,64.8,58.9,29.73,ENE,68,2.5,2.9,81,0.00,,,0.04,WUHU216HW,2013-06-23 19:38:00,
2013-06-23 12:43:00,64.8,58.9,29.73,East,90,2.5,2.9,81,0.00,,,0.04,WUHU216HW,2013-06-23 19:43:00,
2013-06-23 12:48:00,64.8,58.9,29.73,ENE,68,1.6,2.9,81,0.00,,,0.04,WUHU216HW,2013-06-23 19:48:00,
2013-06-23 12:53:00,65.0,58.7,29.73,ENE,68,1.8,2.9,80,0.00,,,0.04,WUHU216HW,2013-06-23 19:53:00,
2013-06-23 12:58:00,64.8,58.9,29.73,East,90,1.8,2.5,81,0.00,,,0.04,WUHU216HW,2013-06-23 19:58:00,
2013-06-23 13:03:00,64.8,58.5,29.73,ENE,68,1.3,2.5,80,0.00,,,0.04,WUHU216HW,2013-06-23 20:03:00,
2013-06-23 13:08:00,64.6,58.7,29.72,ENE,68,1.8,2.5,81,0.00,,,0.04,WUHU216HW,2013-06-23 20:08:00,
2013-06-23 13:13:00,64.6,58.7,29.72,ENE,68,2.0,2.5,81,0.00,,,0.04,WUHU216HW,2013-06-23 20:13:00,
2013-06-23 13:18:00,64.4,58.5,29.72,SE,135,1.1,2.5,81,0.00,,,0.04,WUHU216HW,2013-06-23 20:18:00,
2013-06-23 13:23:00,64.4,58.5,29.72,ENE,68,0.4,2.2,81,0.00,,,0.04,WUHU216HW,2013-06-23 20:23:00,
2013-06-23 13:28:00,64.4,58.5,29.72,ENE,68,1.3,1.8,81,0.00,,,0.04,WUHU216HW,2013-06-23 20:28:00,
2013-06-23 13:33:00,64.6,58.7,29.72,NE,45,0.9,1.8,81,0.00,,,0.04,WUHU216HW,2013-06-23 20:33:00,
2013-06-23 13:38:00,64.6,58.7,29.72,East,90,1.1,1.8,81,0.00,,,0.04,WUHU216HW,2013-06-23 20:38:00,
2013-06-23 13:43:00,64.8,58.9,29.72,ENE,68,1.3,1.8,81,0.00,,,0.04,WUHU216HW,2013-06-23 20:43:00,
2013-06-23 13:48:00,65.0,58.7,29.72,East,90,1.6,1.8,80,0.00,,,0.04,WUHU216HW,2013-06-23 20:48:00,
2013-06-23 13:53:00,65.2,58.9,29.71,East,90,0.7,1.8,80,0.00,,,0.04,WUHU216HW,2013-06-23 20:53:00,
2013-06-23 13:58:00,65.5,59.2,29.71,East,90,0.7,1.6,80,0.01,,,0.05,WUHU216HW,2013-06-23 20:58:00,
2013-06-23 14:03:00,65.5,59.2,29.71,ENE,68,1.1,1.8,80,0.01,,,0.05,WUHU216HW,2013-06-23 21:03:00,
2013-06-23 14:08:00,65.7,59.4,29.71,East,90,2.5,2.5,80,0.01,,,0.05,WUHU216HW,2013-06-23 21:08:00,
2013-06-23 14:13:00,65.9,59.2,29.71,East,90,2.2,2.7,79,0.01,,,0.05,WUHU216HW,2013-06-23 21:13:00,
2013-06-23 14:18:00,65.7,59.4,29.71,ENE,68,2.9,2.9,80,0.01,,,0.05,WUHU216HW,2013-06-23 21:18:00,
2013-06-23 14:23:00,65.9,59.6,29.71,ENE,68,1.8,2.9,80,0.01,,,0.05,WUHU216HW,2013-06-23 21:23:00,
2013-06-23 14:28:00,66.1,59.4,29.71,East,90,1.8,2.9,79,0.01,,,0.05,WUHU216HW,2013-06-23 21:28:00,
2013-06-23 14:33:00,66.2,59.6,29.71,ENE,68,2.2,2.5,79,0.01,,,0.05,WUHU216HW,2013-06-23 21:33:00,
2013-06-23 14:38:00,66.1,59.4,29.71,ESE,113,1.8,2.5,79,0.01,,,0.05,WUHU216HW,2013-06-23 21:38:00,
2013-06-23 14:43:00,66.2,58.8,29.70,ENE,68,2.2,2.5,77,0.01,,,0.05,WUHU216HW,2013-06-23 21:43:00,
2013-06-23 14:48:00,66.4,59.4,29.70,East,90,2.5,2.9,78,0.01,,,0.05,WUHU216HW,2013-06-23 21:48:00,
2013-06-23 14:53:00,66.6,59.6,29.70,NE,45,2.9,2.9,78,0.01,,,0.05,WUHU216HW,2013-06-23 21:53:00,
2013-06-23 14:58:00,67.1,60.1,29.70,NE,45,1.8,2.9,78,0.00,,,0.05,WUHU216HW,2013-06-23 21:58:00,
2013-06-23 15:03:00,67.1,59.7,29.70,NNE,23,1.3,2.9,77,0.00,,,0.05,WUHU216HW,2013-06-23 22:03:00,
2013-06-23 15:08:00,67.3,59.5,29.70,NE,45,1.8,2.7,76,0.00,,,0.05,WUHU216HW,2013-06-23 22:08:00,
2013-06-23 15:13:00,67.3,59.5,29.69,WSW,248,1.3,2.7,76,0.00,,,0.05,WUHU216HW,2013-06-23 22:13:00,
2013-06-23 15:18:00,67.7,59.9,29.69,ESE,113,0.4,2.7,76,0.00,,,0.05,WUHU216HW,2013-06-23 22:18:00,
2013-06-23 15:23:00,67.9,59.3,29.69,NNE,23,1.1,1.8,74,0.00,,,0.05,WUHU216HW,2013-06-23 22:23:00,
2013-06-23 15:28:00,67.7,59.5,29.69,NE,45,0.0,2.7,75,0.00,,,0.05,WUHU216HW,2013-06-23 22:28:00,
2013-06-23 15:33:00,67.5,59.3,29.69,NE,45,1.1,2.7,75,0.00,,,0.05,WUHU216HW,2013-06-23 22:33:00,
2013-06-23 15:38:00,67.3,58.8,29.68,East,90,2.2,2.5,74,0.00,,,0.05,WUHU216HW,2013-06-23 22:38:00,
2013-06-23 15:43:00,67.0,58.8,29.69,East,90,1.8,2.5,75,0.00,,,0.05,WUHU216HW,2013-06-23 22:43:00,
2013-06-23 15:48:00,67.0,58.8,29.68,East,90,2.0,2.5,75,0.00,,,0.05,WUHU216HW,2013-06-23 22:48:00,
2013-06-23 15:53:00,66.6,58.1,29.68,East,90,1.3,2.5,74,0.00,,,0.05,WUHU216HW,2013-06-23 22:53:00,
2013-06-23 15:58:00,66.4,58.2,29.68,ENE,68,2.0,2.0,75,0.00,,,0.05,WUHU216HW,2013-06-23 22:58:00,
2013-06-23 16:03:00,66.2,58.1,29.68,ESE,113,0.4,2.2,75,0.00,,,0.05,WUHU216HW,2013-06-23 23:03:00,
2013-06-23 16:08:00,66.1,58.2,29.68,East,90,1.3,2.2,76,0.00,,,0.05,WUHU216HW,2013-06-23 23:08:00,
2013-06-23 16:13:00,66.1,58.2,29.68,NNE,23,0.9,2.0,76,0.00,,,0.05,WUHU216HW,2013-06-23 23:13:00,
2013-06-23 16:18:00,66.2,58.4,29.68,NNE,23,0.9,2.0,76,0.00,,,0.05,WUHU216HW,2013-06-23 23:18:00,
2013-06-23 16:23:00,66.6,58.8,29.68,North,0,2.5,2.5,76,0.00,,,0.05,WUHU216HW,2013-06-23 23:23:00,
2013-06-23 16:28:00,66.6,59.1,29.67,NE,45,0.0,2.5,77,0.00,,,0.05,WUHU216HW,2013-06-23 23:28:00,
2013-06-23 16:33:00,66.6,59.1,29.67,East,90,1.8,3.1,77,0.00,,,0.05,WUHU216HW,2013-06-23 23:33:00,
2013-06-23 16:38:00,66.6,59.1,29.67,ESE,113,0.4,3.1,77,0.00,,,0.05,WUHU216HW,2013-06-23 23:38:00,
2013-06-23 16:43:00,66.6,58.8,29.67,ENE,68,1.8,2.5,76,0.00,,,0.05,WUHU216HW,2013-06-23 23:43:00,
2013-06-23 16:48:00,66.6,58.8,29.66,NNW,338,1.1,2.5,76,0.00,,,0.05,WUHU216HW,2013-06-23 23:48:00,
2013-06-23 16:53:00,66.6,59.1,29.66,ENE,68,2.5,2.7,77,0.00,,,0.05,WUHU216HW,2013-06-23 23:53:00,
2013-06-23 16:58:00,66.6,59.1,29.66,NE,45,1.8,3.4,77,0.00,,,0.05,WUHU216HW,2013-06-23 23:58:00,
2013-06-23 17:03:00,66.8,59.3,29.66,NNW,338,0.7,3.4,77,0.00,,,0.05,WUHU216HW,2013-06-24 00:03:00,
2013-06-23 17:08:00,67.0,59.5,29.66,North,0,1.8,2.2,77,0.00,,,0.05,WUHU216HW,2013-06-24 00:08:00,
2013-06-23 17:13:00,67.0,59.5,29.66,North,0,0.9,3.1,77,0.00,,,0.05,WUHU216HW,2013-06-24 00:13:00,
2013-06-23 17:18:00,67.1,59.7,29.66,ENE,68,1.1,3.1,77,0.00,,,0.05,WUHU216HW,2013-06-24 00:18:00,
2013-06-23 17:23:00,67.0,59.5,29.65,ENE,68,1.8,1.8,77,0.00,,,0.05,WUHU216HW,2013-06-24 00:23:00,
2013-06-23 17:28:00,66.8,59.3,29.65,ENE,68,0.0,1.8,77,0.00,,,0.05,WUHU216HW,2013-06-24 00:28:00,
2013-06-23 17:33:00,66.6,59.1,29.65,ENE,68,0.2,1.8,77,0.00,,,0.05,WUHU216HW,2013-06-24 00:33:00,
2013-06-23 17:38:00,66.8,59.8,29.65,ESE,113,0.9,1.8,78,0.00,,,0.05,WUHU216HW,2013-06-24 00:38:00,
2013-06-23 17:43:00,66.6,59.6,29.65,ESE,113,0.4,1.8,78,0.00,,,0.05,WUHU216HW,2013-06-24 00:43:00,
2013-06-23 17:48:00,66.6,59.6,29.65,NNW,338,0.4,1.3,78,0.00,,,0.05,WUHU216HW,2013-06-24 00:48:00,
2013-06-23 17:53:00,66.4,59.4,29.64,NNE,23,0.2,1.3,78,0.00,,,0.05,WUHU216HW,2013-06-24 00:53:00,
2013-06-23 17:58:00,66.6,59.6,29.64,East,90,0.4,0.9,78,0.00,,,0.05,WUHU216HW,2013-06-24 00:58:00,
2013-06-23 18:03:00,66.6,59.6,29.64,NE,45,0.0,1.1,78,0.00,,,0.05,WUHU216HW,2013-06-24 01:03:00,
2013-06-23 18:08:00,66.6,59.6,29.64,NNE,23,0.0,1.1,78,0.01,,,0.06,WUHU216HW,2013-06-24 01:08:00,
2013-06-23 18:13:00,66.2,59.2,29.64,NE,45,1.1,1.1,78,0.01,,,0.06,WUHU216HW,2013-06-24 01:13:00,
2013-06-23 18:18:00,66.2,59.6,29.63,NNE,23,0.7,2.0,79,0.01,,,0.06,WUHU216HW,2013-06-24 01:18:00,
2013-06-23 18:23:00,65.7,59.1,29.63,WSW,248,0.4,2.0,79,0.01,,,0.06,WUHU216HW,2013-06-24 01:23:00,
2013-06-23 18:28:00,65.7,59.1,29.63,NE,45,0.2,1.8,79,0.01,,,0.06,WUHU216HW,2013-06-24 01:28:00,
2013-06-23 18:33:00,65.7,59.1,29.63,NNE,23,0.0,1.6,79,0.01,,,0.06,WUHU216HW,2013-06-24 01:33:00,
2013-06-23 18:38:00,65.5,58.9,29.63,NNE,23,0.4,0.9,79,0.01,,,0.06,WUHU216HW,2013-06-24 01:38:00,
2013-06-23 18:43:00,65.5,59.2,29.63,NE,45,1.6,2.0,80,0.01,,,0.06,WUHU216HW,2013-06-24 01:43:00,
2013-06-23 18:48:00,65.3,59.0,29.63,NNE,23,2.0,2.0,80,0.01,,,0.06,WUHU216HW,2013-06-24 01:48:00,
2013-06-23 18:53:00,65.3,59.0,29.62,NNE,23,1.1,2.0,80,0.02,,,0.07,WUHU216HW,2013-06-24 01:53:00,
2013-06-23 18:58:00,65.3,59.0,29.62,ENE,68,0.0,2.0,80,0.02,,,0.07,WUHU216HW,2013-06-24 01:58:00,
2013-06-23 19:03:00,65.3,59.0,29.62,NNE,23,0.0,2.5,80,0.02,,,0.07,WUHU216HW,2013-06-24 02:03:00,
2013-06-23 19:08:00,65.5,59.2,29.62,NNW,338,0.4,2.5,80,0.01,,,0.07,WUHU216HW,2013-06-24 02:08:00,
2013-06-23 19:13:00,65.7,59.4,29.62,ENE,68,1.3,1.8,80,0.01,,,0.07,WUHU216HW,2013-06-24 02:13:00,
2013-06-23 19:18:00,65.5,59.2,29.62,ENE,68,0.9,1.8,80,0.01,,,0.07,WUHU216HW,2013-06-24 02:18:00,
2013-06-23 19:23:00,65.3,59.0,29.61,NNE,23,1.1,2.5,80,0.01,,,0.07,WUHU216HW,2013-06-24 02:23:00,
2013-06-23 19:28:00,65.3,59.0,29.61,East,90,0.4,2.5,80,0.01,,,0.07,WUHU216HW,2013-06-24 02:28:00,
2013-06-23 19:33:00,65.2,58.9,29.61,East,90,1.1,1.6,80,0.01,,,0.07,WUHU216HW,2013-06-24 02:33:00,
2013-06-23 19:38:00,65.0,58.7,29.61,ESE,113,0.2,1.6,80,0.01,,,0.07,WUHU216HW,2013-06-24 02:38:00,
2013-06-23 19:43:00,65.0,58.7,29.61,NNE,23,0.0,1.6,80,0.01,,,0.07,WUHU216HW,2013-06-24 02:43:00,
2013-06-23 19:48:00,64.8,58.5,29.61,NE,45,0.0,1.6,80,0.01,,,0.07,WUHU216HW,2013-06-24 02:48:00,
2013-06-23 19:53:00,64.4,58.5,29.60,North,0,1.1,2.0,81,0.00,,,0.07,WUHU216HW,2013-06-24 02:53:00,
2013-06-23 19:58:00,64.4,58.5,29.60,ENE,68,1.1,2.9,81,0.00,,,0.07,WUHU216HW,2013-06-24 02:58:00,
2013-06-23 20:03:00,64.3,58.3,29.60,NE,45,0.7,2.9,81,0.00,,,0.07,WUHU216HW,2013-06-24 03:03:00,
2013-06-23 20:08:00,63.7,57.8,29.60,ENE,68,1.6,2.7,81,0.00,,,0.07,WUHU216HW,2013-06-24 03:08:00,
2013-06-23 20:13:00,63.5,57.6,29.60,ENE,68,1.8,2.7,81,0.00,,,0.07,WUHU216HW,2013-06-24 03:13:00,
2013-06-23 20:18:00,63.4,57.4,29.60,SSW,203,0.4,1.8,81,0.00,,,0.07,WUHU216HW,2013-06-24 03:18:00,
2013-06-23 20:23:00,63.4,57.4,29.60,SW,225,0.2,2.5,81,0.00,,,0.07,WUHU216HW,2013-06-24 03:23:00,
2013-06-23 20:28:00,63.5,57.6,29.60,West,270,0.2,2.5,81,0.00,,,0.07,WUHU216HW,2013-06-24 03:28:00,
2013-06-23 20:33:00,63.5,57.2,29.60,WNW,293,0.0,1.6,80,0.00,,,0.07,WUHU216HW,2013-06-24 03:33:00,
2013-06-23 20:38:00,63.5,57.2,29.60,NNW,338,0.0,0.7,80,0.00,,,0.07,WUHU216HW,2013-06-24 03:38:00,
2013-06-23 20:43:00,63.5,57.2,29.60,WSW,248,0.0,0.7,80,0.00,,,0.07,WUHU216HW,2013-06-24 03:43:00,
2013-06-23 20:48:00,63.5,57.2,29.60,SW,225,0.9,0.9,80,0.00,,,0.07,WUHU216HW,2013-06-24 03:48:00,
2013-06-23 20:53:00,63.7,57.8,29.60,SW,225,1.6,1.6,81,0.00,,,0.07,WUHU216HW,2013-06-24 03:53:00,
2013-06-23 20:58:00,63.7,57.8,29.60,SW,225,0.7,1.8,81,0.00,,,0.07,WUHU216HW,2013-06-24 03:58:00,
2013-06-23 21:01:00,63.5,57.6,29.60,WSW,248,0.4,1.8,81,0.00,,,0.07,WUHU216HW,2013-06-24 04:01:00,
2013-06-23 21:06:00,63.5,57.6,29.61,West,270,0.4,4.0,81,0.00,,,0.07,WUHU216HW,2013-06-24 04:06:00,
2013-06-23 21:11:00,63.5,57.6,29.60,SW,225,0.7,4.0,81,0.00,,,0.07,WUHU216HW,2013-06-24 04:11:00,
2013-06-23 21:16:00,63.5,57.6,29.60,SW,225,1.8,3.1,81,0.01,,,0.08,WUHU216HW,2013-06-24 04:16:00,
2013-06-23 21:21:00,63.5,57.6,29.60,WSW,248,2.0,3.4,81,0.02,,,0.09,WUHU216HW,2013-06-24 04:21:00,
2013-06-23 21:26:00,63.4,57.4,29.60,WSW,248,0.4,3.4,81,0.03,,,0.10,WUHU216HW,2013-06-24 04:26:00,
2013-06-23 21:31:00,63.4,57.8,29.60,SW,225,1.1,2.5,82,0.05,,,0.12,WUHU216HW,2013-06-24 04:31:00,
2013-06-23 21:36:00,63.2,57.6,29.60,West,270,1.3,2.5,82,0.05,,,0.12,WUHU216HW,2013-06-24 04:36:00,
2013-06-23 21:41:00,63.0,57.4,29.60,SSW,203,2.5,4.0,82,0.06,,,0.13,WUHU216HW,2013-06-24 04:41:00,
2013-06-23 21:46:00,62.8,57.3,29.60,SSE,158,2.5,4.0,82,0.06,,,0.13,WUHU216HW,2013-06-24 04:46:00,
2013-06-23 21:51:00,62.6,57.1,29.61,SW,225,3.4,4.0,82,0.07,,,0.14,WUHU216HW,2013-06-24 04:51:00,
2013-06-23 21:56:00,62.5,56.9,29.61,WSW,248,2.2,4.5,82,0.07,,,0.14,WUHU216HW,2013-06-24 04:56:00,
2013-06-23 22:01:00,62.3,56.7,29.61,WSW,248,3.6,4.5,82,0.08,,,0.15,WUHU216HW,2013-06-24 05:01:00,
2013-06-23 22:06:00,62.1,56.5,29.61,SSW,203,0.7,3.6,82,0.08,,,0.15,WUHU216HW,2013-06-24 05:06:00,
2013-06-23 22:11:00,61.9,56.3,29.61,SSE,158,0.4,3.6,82,0.08,,,0.15,WUHU216HW,2013-06-24 05:11:00,
2013-06-23 22:16:00,61.9,56.3,29.61,SW,225,0.9,2.7,82,0.08,,,0.16,WUHU216HW,2013-06-24 05:16:00,
2013-06-23 22:21:00,61.7,56.2,29.61,SW,225,2.9,4.0,82,0.07,,,0.16,WUHU216HW,2013-06-24 05:21:00,
2013-06-23 22:26:00,61.6,56.1,29.61,SW,225,0.7,4.0,82,0.08,,,0.18,WUHU216HW,2013-06-24 05:26:00,
2013-06-23 22:31:00,61.6,56.1,29.61,SW,225,0.4,3.6,82,0.08,,,0.20,WUHU216HW,2013-06-24 05:31:00,
2013-06-23 22:36:00,61.4,55.9,29.61,SSE,158,0.2,3.4,82,0.10,,,0.22,WUHU216HW,2013-06-24 05:36:00,
2013-06-23 22:41:00,61.2,55.7,29.61,SSE,158,0.4,1.3,82,0.12,,,0.25,WUHU216HW,2013-06-24 05:41:00,
2013-06-23 22:46:00,61.0,55.5,29.61,SW,225,2.5,4.3,82,0.12,,,0.25,WUHU216HW,2013-06-24 05:46:00,
2013-06-23 22:51:00,60.8,55.4,29.61,SW,225,0.4,4.3,82,0.11,,,0.25,WUHU216HW,2013-06-24 05:51:00,
2013-06-23 22:56:00,60.7,55.2,29.61,SW,225,2.5,2.9,82,0.13,,,0.27,WUHU216HW,2013-06-24 05:56:00,
2013-06-23 23:01:00,60.5,55.0,29.61,WSW,248,1.1,4.3,82,0.12,,,0.27,WUHU216HW,2013-06-24 06:01:00,
2013-06-23 23:06:00,60.3,54.8,29.61,SW,225,1.1,6.3,82,0.12,,,0.27,WUHU216HW,2013-06-24 06:06:00,
2013-06-23 23:11:00,60.1,54.6,29.61,SW,225,1.8,6.3,82,0.12,,,0.27,WUHU216HW,2013-06-24 06:11:00,
2013-06-23 23:16:00,60.1,54.6,29.61,WSW,248,2.7,4.7,82,0.11,,,0.27,WUHU216HW,2013-06-24 06:16:00,
2013-06-23 23:21:00,60.1,54.6,29.61,SSW,203,0.4,3.6,82,0.09,,,0.27,WUHU216HW,2013-06-24 06:21:00,
2013-06-23 23:26:00,60.1,54.6,29.61,WSW,248,0.4,2.5,82,0.09,,,0.27,WUHU216HW,2013-06-24 06:26:00,
2013-06-23 23:31:00,60.1,54.6,29.60,SW,225,2.0,2.2,82,0.07,,,0.27,WUHU216HW,2013-06-24 06:31:00,
2013-06-23 23:36:00,60.1,54.6,29.60,SSW,203,0.9,2.9,82,0.04,,,0.27,WUHU216HW,2013-06-24 06:36:00,
2013-06-23 23:42:00,59.9,54.5,29.60,West,270,2.0,2.9,82,0.02,,,0.27,WUHU216HW,2013-06-24 06:42:00,
2013-06-23 23:47:00,59.9,54.5,29.60,SE,135,0.2,2.9,82,0.02,,,0.27,WUHU216HW,2013-06-24 06:47:00,
2013-06-23 23:52:00,59.8,54.3,29.60,SSE,158,0.4,2.9,82,0.00,,,0.27,WUHU216HW,2013-06-24 06:52:00,
2013-06-23 23:57:00,59.8,54.3,29.60,WSW,248,3.1,3.1,82,0.00,,,0.27,WUHU216HW,2013-06-24 06:57:00,